FW8148 Weather Reports


time (UTC)temp
C
wind
direction
speed
KPH
gust
KPH
rain 1hr
cm
rain 24hr
cm
rain mn
cm
humidity
%
barometer
mb
20260510015403 13 22 0.0 3.2 0.00 0.00 0.00 70 1010.6
20260510014503 13 21 1.6 6.4 0.00 0.00 0.00 69 1010.7
20260510013603 13 27 1.6 4.8 0.00 0.00 0.00 68 1010.8
20260510012703 13 16 1.6 6.4 0.00 0.00 0.00 69 1010.6
20260510011803 13 26 1.6 6.4 0.00 0.00 0.00 69 1010.9
20260510010903 13 25 1.6 4.8 0.00 0.00 0.00 69 1011.1
20260510010218 13 24 0.0 3.2 0.00 0.00 0.00 70 1011.0
20260510005403 13 21 0.0 3.2 0.00 0.00 0.00 70 1011.2
20260510004503 13 18 0.0 3.2 0.00 0.00 0.00 71 1011.0
20260510003818 13 19 0.0 4.8 0.00 0.00 0.00 70 1011.2
20260510002703 14 11 0.0 3.2 0.00 0.00 0.00 69 1011.6
20260510001803 14 1 0.0 4.8 0.00 0.00 0.00 68 1011.5
20260510001118 14 8 1.6 6.4 0.00 0.00 0.00 68 1011.5
20260510000003 14 20 1.6 6.4 0.00 0.00 0.00 68 1011.9
20260509235617 14 25 0.0 6.4 0.00 0.00 0.00 68 1011.8
20260509234503 15 11 0.0 3.2 0.00 0.00 0.00 68 1011.9
20260509233603 15 21 1.6 6.4 0.00 0.00 0.00 68 1012.0
20260509232703 15 17 1.6 6.4 0.00 0.00 0.00 67 1012.3
20260509231803 15 23 1.6 6.4 0.00 0.00 0.00 67 1012.0
20260509230903 15 12 1.6 11.3 0.00 0.00 0.00 66 1012.0
20260509230004 15 16 1.6 9.7 0.00 0.00 0.00 67 1012.2
20260509225403 15 21 1.6 9.7 0.00 0.00 0.00 66 1012.2
20260509224503 15 27 1.6 6.4 0.00 0.00 0.00 67 1012.5
20260509223603 15 11 1.6 11.3 0.00 0.00 0.00 67 1012.3
20260509222703 15 18 1.6 9.7 0.00 0.00 0.00 67 1012.2
20260509221803 15 21 1.6 9.7 0.00 0.00 0.00 67 1011.9
20260509220903 15 16 1.6 6.4 0.00 0.00 0.00 67 1012.3
20260509220218 15 18 0.0 4.8 0.00 0.00 0.00 68 1012.0
20260509215403 16 25 1.6 4.8 0.00 0.00 0.00 68 1012.0
20260509214503 16 18 1.6 9.7 0.00 0.00 0.00 67 1012.3
20260509213603 16 16 1.6 9.7 0.00 0.00 0.00 67 1012.0
20260509212703 16 19 1.6 6.4 0.00 0.00 0.00 67 1012.3
20260509211803 16 25 1.6 6.4 0.00 0.00 0.00 67 1012.5
20260509211117 16 14 1.6 6.4 0.00 0.00 0.00 67 1012.4
20260509210003 16 21 1.6 3.2 0.00 0.00 0.00 66 1012.2
20260509205403 16 18 0.0 3.2 0.00 0.00 0.00 67 1012.2
20260509204503 16 16 0.0 3.2 0.00 0.00 0.00 68 1012.2
20260509203603 16 17 0.0 3.2 0.00 0.00 0.00 69 1011.9
20260509202703 16 3 0.0 1.6 0.00 0.00 0.00 69 1012.2
20260509201803 16 14 0.0 1.6 0.00 0.00 0.00 70 1012.4
20260509200903 16 0 0.0 0.0 0.00 0.00 0.00 71 1012.2
20260509200003 16 0 0.0 0.0 0.00 0.00 0.00 70 1012.3
20260509195403 16 0 0.0 0.0 0.00 0.00 0.00 70 1012.0
20260509194503 17 16 0.0 1.6 0.00 0.00 0.00 67 1011.9
20260509193603 17 11 0.0 4.8 0.00 0.00 0.00 65 1011.7
20260509192919 17 11 0.0 3.2 0.00 0.00 0.00 65 1011.4
20260509191803 17 3 0.0 1.6 0.00 0.00 0.00 63 1011.6
20260509190903 18 18 0.0 4.8 0.00 0.00 0.00 63 1011.6
20260509190003 18 20 1.6 9.7 0.00 0.00 0.00 60 1011.7
20260509185403 18 15 3.2 9.7 0.00 0.00 0.00 59 1011.7
20260509184718 18 15 1.6 11.3 0.00 0.00 0.00 59 1011.7
20260509183603 19 18 1.6 9.7 0.00 0.00 0.00 60 1011.7
20260509182704 20 36 1.6 4.8 0.00 0.00 0.00 58 1011.6
20260509181803 20 35 1.6 4.8 0.00 0.00 0.00 57 1011.5
20260509180903 20 40 1.6 9.7 0.00 0.00 0.00 56 1011.6
20260509180003 21 39 1.6 9.7 0.00 0.00 0.00 56 1011.3
20260509175403 21 61 1.6 9.7 0.00 0.00 0.00 55 1011.4
20260509174503 21 63 1.6 9.7 0.00 0.00 0.00 54 1011.4
20260509173817 21 71 1.6 11.3 0.00 0.00 0.00 53 1011.6
20260509172703 21 67 3.2 11.3 0.00 0.00 0.00 53 1011.5
20260509171803 22 50 3.2 11.3 0.00 0.00 0.00 50 1011.2
20260509171119 22 55 3.2 9.7 0.00 0.00 0.00 50 1011.5
20260509170003 22 41 3.2 11.3 0.00 0.00 0.00 49 1011.5
20260509165618 22 54 3.2 11.3 0.00 0.00 0.00 48 1011.5
20260509164503 22 73 1.6 9.7 0.00 0.00 0.00 48 1011.9
20260509163603 22 34 3.2 12.9 0.00 0.00 0.00 47 1011.6
20260509162704 22 54 3.2 12.9 0.00 0.00 0.00 47 1011.7
20260509161803 22 71 1.6 6.4 0.00 0.00 0.00 48 1011.8
20260509160903 23 47 3.2 9.7 0.00 0.00 0.00 47 1011.7
20260509160003 22 28 1.6 9.7 0.00 0.00 0.00 48 1011.8
20260509155403 22 48 1.6 6.4 0.00 0.00 0.00 50 1011.8
20260509154503 22 60 1.6 4.8 0.00 0.00 0.00 50 1012.2
20260509153603 22 52 1.6 4.8 0.00 0.00 0.00 49 1012.2
20260509152705 23 59 3.2 11.3 0.00 0.00 0.00 47 1012.4
20260509151803 24 71 3.2 11.3 0.00 0.00 0.00 45 1012.4
20260509151116 24 66 3.2 9.7 0.00 0.00 0.00 43 1012.4
20260509150003 24 91 3.2 9.7 0.00 0.00 0.00 43 1011.9
20260509145403 24 47 3.2 9.7 0.00 0.00 0.00 42 1012.4
20260509144503 23 44 3.2 9.7 0.00 0.00 0.00 42 1012.3
20260509143604 23 65 3.2 11.3 0.00 0.00 0.00 46 1012.4
20260509142703 22 72 3.2 6.4 0.00 0.00 0.00 47 1012.4
20260509141803 23 52 3.2 11.3 0.00 0.00 0.00 47 1012.5
20260509140903 22 71 1.6 6.4 0.00 0.00 0.00 47 1012.3
20260509140003 23 69 3.2 6.4 0.00 0.00 0.00 47 1012.4
20260509135617 23 68 3.2 11.3 0.00 0.00 0.00 48 1012.5
20260509134503 24 89 3.2 9.7 0.00 0.00 0.00 44 1012.4
20260509133603 23 95 3.2 11.3 0.00 0.00 0.00 46 1012.4
20260509132705 22 80 3.2 11.3 0.00 0.00 0.00 47 1012.7
20260509131803 24 74 3.2 6.4 0.00 0.00 0.00 47 1012.6
20260509131118 23 58 3.2 12.9 0.00 0.00 0.00 48 1012.8
20260509130004 23 63 3.2 9.7 0.00 0.00 0.00 49 1012.8
20260509125616 23 66 3.2 9.7 0.00 0.00 0.00 49 1013.2
20260509124503 22 83 3.2 12.9 0.00 0.00 0.00 51 1013.2
20260509123603 22 76 3.2 6.4 0.00 0.00 0.00 50 1013.0
20260509122703 22 74 3.2 11.3 0.00 0.00 0.00 51 1013.1
20260509121803 22 65 3.2 14.5 0.00 0.00 0.00 50 1013.2
20260509120903 22 50 4.8 14.5 0.00 0.00 0.00 51 1013.3
20260509120003 22 86 3.2 11.3 0.00 0.00 0.00 51 1013.2
20260509115403 23 78 3.2 12.9 0.00 0.00 0.00 54 1013.6
20260509114503 22 85 3.2 14.5 0.00 0.00 0.00 54 1013.5
20260509113817 23 84 3.2 14.5 0.00 0.00 0.00 52 1013.7
20260509112703 22 65 4.8 12.9 0.00 0.00 0.00 53 1013.9
20260509111803 22 71 4.8 16.1 0.00 0.00 0.00 54 1014.0
20260509111117 22 63 3.2 12.9 0.00 0.00 0.00 53 1013.9
20260509110003 22 74 3.2 11.3 0.00 0.00 0.00 56 1013.8
20260509105403 22 79 3.2 9.7 0.00 0.00 0.00 55 1014.1
20260509104719 22 53 3.2 11.3 0.00 0.00 0.00 57 1014.0
20260509103603 22 67 3.2 9.7 0.00 0.00 0.00 60 1014.3
20260509102703 21 45 1.6 6.4 0.00 0.00 0.00 64 1014.3
20260509101803 21 60 1.6 9.7 0.00 0.00 0.00 63 1014.4
20260509100904 21 50 3.2 9.7 0.00 0.00 0.00 64 1014.5
20260509100004 20 58 3.2 6.4 0.00 0.00 0.00 64 1014.3
20260509095403 20 49 3.2 11.3 0.00 0.00 0.00 65 1014.4
20260509094503 20 46 3.2 11.3 0.00 0.00 0.00 66 1014.4
20260509093603 19 26 3.2 9.7 0.00 0.00 0.00 67 1014.4
20260509092703 20 53 3.2 9.7 0.00 0.00 0.00 66 1014.4
20260509091803 19 47 3.2 11.3 0.00 0.00 0.00 67 1014.5
20260509090903 18 43 3.2 11.3 0.00 0.00 0.00 68 1014.6
20260509090003 18 51 3.2 11.3 0.00 0.00 0.00 71 1014.4
20260509085403 18 63 1.6 6.4 0.00 0.00 0.00 68 1014.5
20260509084503 18 48 1.6 4.8 0.00 0.00 0.00 71 1014.6
20260509083604 17 59 1.6 9.7 0.00 0.00 0.00 72 1014.5
20260509082917 17 50 3.2 9.7 0.00 0.00 0.00 72 1014.6
20260509081804 16 44 1.6 6.4 0.00 0.00 0.00 73 1014.5
20260509080903 16 35 3.2 9.7 0.00 0.00 0.00 75 1014.8
20260509080003 16 39 1.6 9.7 0.00 0.00 0.00 75 1014.7
20260509075623 15 45 3.2 11.3 0.00 0.00 0.00 76 1014.8
20260509074503 15 44 3.2 9.7 0.00 0.00 0.00 77 1014.8
20260509073603 15 53 1.6 6.4 0.00 0.00 0.00 77 1015.0
20260509072703 14 42 1.6 6.4 0.00 0.00 0.00 79 1014.8
20260509072018 14 48 1.6 6.4 0.00 0.00 0.00 78 1015.0
20260509070903 13 39 1.6 9.7 0.00 0.00 0.00 83 1014.9
20260509070004 13 55 1.6 6.4 0.00 0.00 0.00 86 1015.0
20260509065403 12 43 1.6 6.4 0.00 0.00 0.00 85 1015.1
20260509064503 12 31 1.6 9.7 0.00 0.00 0.00 87 1014.8
20260509063603 11 49 1.6 4.8 0.00 0.00 0.00 88 1015.0
20260509062705 11 22 1.6 11.3 0.00 0.00 0.00 89 1014.8
20260509062018 11 61 1.6 3.2 0.00 0.00 0.00 92 1015.0
20260509061121 10 23 0.0 3.2 0.00 0.00 0.00 97 1014.7
20260509060004 8 17 0.0 1.6 0.00 0.00 0.00 99 1014.6
20260509055403 8 7 0.0 1.6 0.00 0.00 0.00 99 1014.7
20260509054503 7 0 0.0 0.0 0.00 0.00 0.00 99 1014.9
20260509053817 7 0 0.0 0.0 0.00 0.00 0.00 99 1014.7
20260509052703 6 0 0.0 0.0 0.00 0.00 0.00 99 1014.7
20260509052017 6 0 0.0 0.0 0.00 0.00 0.00 99 1014.5
20260509050903 5 0 0.0 0.0 0.00 0.00 0.00 98 1014.6
20260509050003 5 0 0.0 0.0 0.00 0.00 0.00 99 1014.5
20260509045403 5 0 0.0 0.0 0.00 0.00 0.00 99 1014.5
20260509044503 5 0 0.0 0.0 0.00 0.00 0.00 99 1014.6
20260509043603 5 0 0.0 0.0 0.00 0.00 0.00 99 1014.6
20260509042703 5 0 0.0 0.0 0.00 0.00 0.00 98 1014.6
20260509041803 5 0 0.0 0.0 0.00 0.00 0.00 98 1014.5
20260509041118 5 0 0.0 0.0 0.00 0.00 0.00 98 1014.5
20260509040218 5 0 0.0 0.0 0.00 0.00 0.00 98 1014.5
20260509035403 5 0 0.0 0.0 0.00 0.00 0.00 98 1014.5
20260509034505 5 0 0.0 0.0 0.00 0.00 0.00 98 1014.5
20260509033603 5 0 0.0 0.0 0.00 0.00 0.00 98 1014.6
20260509032703 5 0 0.0 0.0 0.00 0.00 0.00 98 1014.5
20260509031803 5 0 0.0 0.0 0.00 0.00 0.00 98 1014.6
20260509031118 5 0 0.0 0.0 0.00 0.00 0.00 98 1014.8
20260509030003 5 0 0.0 0.0 0.00 0.00 0.00 98 1014.8
20260509025403 5 0 0.0 0.0 0.00 0.00 0.00 98 1014.7
20260509024503 5 0 0.0 0.0 0.00 0.00 0.00 98 1014.6
20260509023818 5 0 0.0 0.0 0.00 0.00 0.00 98 1014.6
20260509022703 5 0 0.0 0.0 0.00 0.00 0.00 98 1014.7
20260509021803 5 0 0.0 0.0 0.00 0.00 0.00 98 1014.8
20260509020903 5 0 0.0 0.0 0.00 0.00 0.00 98 1014.6